Change the Weather History Date:

Tuesday, February 11, 2014

  Actual Average Record
Temperature  
Mean Temperature 22 °F -  
Max Temperature 30 °F 51 °F 75 °F (1999)
Min Temperature 15 °F 34 °F 8 °F (2011)
Degree Days  
Heating Degree Days 42    
Moisture  
Dew Point 12 °F    
Average Humidity 64    
Maximum Humidity 74    
Minimum Humidity 47    
Precipitation  
Precipitation 0.00 in - - ()
Sea Level Pressure  
Sea Level Pressure 30.35 in    
Wind  
Wind Speed 10 mph (NNE)    
Max Wind Speed 15 mph    
Max Gust Speed -    
Visibility 10 miles    
Events      
Averages and records for this station are not official NWS values.
T = Trace of Precipitation, MM = Missing Value Source: NWS Daily Summary

Daily Weather History Graph

Daily Weather History Graph

Search for Another Location

Airport or City:

Trip Planner

Search our weather history database for the weather conditions in past years. The results will help you decide how hot, cold, wet, or windy it might be!

Date:

Astronomy

Feb. 11, 2014 Rise Set
Actual Time 6:50 AM CST 5:37 PM CST
Civil Twilight 6:23 AM CST 6:04 PM CST
Nautical Twilight 5:53 AM CST 6:34 PM CST
Astronomical Twilight 5:24 AM CST 7:03 PM CST
Moon 3:01 PM CST (2/11) 4:24 AM CST (2/11)
Length of Visible Light 11h 40m
Length of Day
10h 47m
Waxing Gibbous, 91% of the Moon is Illuminated
Feb 11
Waxing Gibbous
Feb 14
Full
Feb 22
Last Quarter
Mar 1
New
Mar 8
First Quarter

Hourly Weather History & Observations

Time (CST) Temp. Windchill Dew Point Humidity Pressure Visibility Wind Dir Wind Speed Gust Speed Precip Events Conditions
12:50 AM 21.2 °F 10.1 °F 14.0 °F 74% 30.36 in 10.0 mi North 10.4 mph - N/A   Overcast
1:50 AM 21.2 °F 10.1 °F 10.4 °F 63% 30.37 in 10.0 mi NNE 10.4 mph - N/A   Overcast
2:15 AM 21.2 °F 7.8 °F 10.4 °F 63% 30.37 in 10.0 mi North 15.0 mph - N/A   Scattered Clouds
2:35 AM 19.4 °F 6.6 °F 10.4 °F 68% 30.36 in 10.0 mi North 12.7 mph - N/A   Scattered Clouds
2:55 AM 19.4 °F 7.2 °F 10.4 °F 68% 30.35 in 10.0 mi NNE 11.5 mph - N/A   Partly Cloudy
3:15 AM 19.4 °F 8.6 °F 8.6 °F 63% 30.35 in 10.0 mi NNE 9.2 mph - N/A   Partly Cloudy
3:35 AM 19.4 °F 8.6 °F 10.4 °F 68% 30.34 in 10.0 mi North 9.2 mph - N/A   Mostly Cloudy
3:55 AM 19.4 °F 11.5 °F 8.6 °F 63% 30.35 in 10.0 mi NNE 5.8 mph - N/A   Overcast
4:15 AM 17.6 °F 7.3 °F 10.4 °F 73% 30.36 in 10.0 mi North 8.1 mph - N/A   Overcast
4:35 AM 17.6 °F 6.4 °F 8.6 °F 68% 30.37 in 10.0 mi North 9.2 mph - N/A   Overcast
4:55 AM 17.6 °F 5.7 °F 8.6 °F 68% 30.37 in 10.0 mi North 10.4 mph - N/A   Overcast
5:30 AM 17.6 °F 6.4 °F 8.6 °F 68% 30.37 in 10.0 mi North 9.2 mph - N/A   Overcast
5:52 AM 17.6 °F 5.0 °F 8.6 °F 68% 30.38 in 10.0 mi North 11.5 mph - N/A   Overcast
6:52 AM 15.8 °F 5.1 °F 8.6 °F 73% 30.40 in 10.0 mi NNE 8.1 mph - N/A   Mostly Cloudy
7:50 AM 15.8 °F 3.4 °F 8.6 °F 73% 30.41 in 10.0 mi North 10.4 mph - N/A   Mostly Cloudy
8:50 AM 17.6 °F 6.4 °F 8.6 °F 68% 30.41 in 10.0 mi North 9.2 mph - N/A   Mostly Cloudy
9:50 AM 19.4 °F 8.6 °F 10.4 °F 68% 30.43 in 10.0 mi North 9.2 mph - N/A   Mostly Cloudy
10:50 AM 24.8 °F 16.9 °F 10.4 °F 54% 30.42 in 10.0 mi NNE 6.9 mph - N/A   Mostly Cloudy
11:50 AM 26.6 °F 16.8 °F 10.4 °F 51% 30.40 in 10.0 mi NNE 10.4 mph - N/A   Scattered Clouds
12:50 PM 28.4 °F 19.1 °F 12.2 °F 51% 30.35 in 10.0 mi NNE 10.4 mph - N/A   Scattered Clouds
1:50 PM 30.2 °F 23.4 °F 15.8 °F 55% 30.34 in 10.0 mi NE 6.9 mph - N/A   Mostly Cloudy
2:50 PM 30.2 °F 21.9 °F 12.2 °F 47% 30.31 in 10.0 mi NNE 9.2 mph - N/A   Mostly Cloudy
3:50 PM 30.2 °F 21.9 °F 17.6 °F 60% 30.29 in 10.0 mi NNE 9.2 mph - N/A   Mostly Cloudy
4:50 PM 28.4 °F 21.2 °F 15.8 °F 59% 30.28 in 10.0 mi NNE 6.9 mph - N/A   Mostly Cloudy
5:50 PM 28.4 °F 21.2 °F 14.0 °F 55% 30.29 in 10.0 mi NNE 6.9 mph - N/A   Mostly Cloudy
6:50 PM 26.6 °F 18.2 °F 14.0 °F 59% 30.28 in 10.0 mi NNE 8.1 mph - N/A   Mostly Cloudy
7:50 PM 26.6 °F 20.0 °F 15.8 °F 64% 30.30 in 10.0 mi North 5.8 mph - N/A   Overcast
8:50 PM 26.6 °F 18.2 °F 15.8 °F 64% 30.30 in 10.0 mi North 8.1 mph - N/A   Overcast
9:50 PM 26.6 °F 21.2 °F 15.8 °F 64% 30.29 in 10.0 mi NNE 4.6 mph - N/A   Overcast
10:50 PM 24.8 °F 17.9 °F 15.8 °F 69% 30.27 in 10.0 mi NE 5.8 mph - N/A   Overcast
11:50 PM 26.6 °F 20.0 °F 17.6 °F 69% 30.26 in 10.0 mi North 5.8 mph - N/A   Overcast